Home > Weather > Edmundston > Past weeks

Flag for Canada Past Weather in Edmundston, New Brunswick, Canada — Yesterday and Last 2 Weeks

Now
61 °F

Cool.


Feels Like: 61 °F
Forecast: 55 / 77 °F
Wind: 2 mph from Southwest

Location: Riviere Du Loup

Current Time: Jul 31, 2016 at 12:41:40 AM

Latest Report: Jul 31, 2016 at 12:00 AM


Visibility: N/A

Pressure: 30.07 "Hg

Humidity: 70%

Dew Point: 51 °F

Location of EdmundstonLocation

Past Weather in Edmundston — Graph

°F

Edmundston Temperature Yesterday

Maximum temperature yesterday: 72 °F (at 6:00 PM)
Minimum temperature yesterday: 54 °F (at 5:00 AM)
Average temperature yesterday: 63 °F

High & Low Weather Summary for the Past Weeks

 TemperatureHumidityPressure
High78 °F (Jul 22, 3:00 PM)100% (Jul 28, 8:00 AM)30.12 "Hg (Jul 28, 8:00 AM)
Low52 °F (Jul 17, 6:00 AM)42% (Jul 16, 5:00 PM)29.52 "Hg (Jul 22, 6:00 AM)
Average65 °F74%29.87 "Hg
* Reported Jul 15 11:00 PM — Jul 30 11:00 PM, Edmundston, Weather by CustomWeather, © 2016

Note: Actual official high and low records may vary slightly from our data, if they occured in-between our weather recording intervals... More about our weather records

Advertising

Edmundston Weather History for the Previous 24 Hours

Scroll right to see more
 ConditionsComfort  
Time TempWeatherWind HumidityBarometerVisibility
11:00 PM
Sat, Jul 30
63 °FMild.2 mph65%30.07 "HgN/A
10:00 PM63 °FMild.3 mph67%30.05 "HgN/A
9:00 PM65 °FMild.2 mph60%30.03 "HgN/A
8:00 PM69 °FMild.2 mph52%30.03 "HgN/A
7:00 PM68 °FMild.3 mph57%30.02 "HgN/A
6:00 PM72 °FMild.5 mph50%30.02 "HgN/A
5:00 PM71 °FMild.5 mph55%30.02 "HgN/A
4:00 PM71 °FMild.5 mph57%30.02 "HgN/A
3:00 PM67 °FMild.6 mph62%30.02 "HgN/A
2:00 PM68 °FMild.6 mph63%30.02 "HgN/A
1:00 PM69 °FMild.3 mph59%30.01 "HgN/A
12:00 PM69 °FMild.3 mph65%30.02 "HgN/A
11:00 AM67 °FMild.5 mph64%30.02 "HgN/A
10:00 AM65 °FMild.3 mph65%30.02 "HgN/A
9:00 AM64 °FMild.2 mph74%30.01 "HgN/A
8:00 AM58 °FCool.2 mph85%30.01 "HgN/A
7:00 AM56 °FCool.2 mph87%29.99 "HgN/A
6:00 AM55 °FCool.2 mph88%29.98 "HgN/A
5:00 AM54 °FCool.1 mph88%29.97 "HgN/A
4:00 AM56 °FCool.1 mph85%29.97 "HgN/A
3:00 AM56 °FCool.2 mph87%29.97 "HgN/A
2:00 AM55 °FCool.1 mph86%29.97 "HgN/A
1:00 AM58 °FCool.1 mph81%29.97 "HgN/A
12:00 AM61 °FCool.3 mph72%29.96 "HgN/A
Weather by CustomWeather, © 2016

See weather overviewHow to use our weather pages